Torna al catalogo

CZ-4 DEB

AttivoSSO
NORAD 20894·DEBRIS·🇨🇳 China

Lanciato Sep 3, 1990 da Taiyuan Satellite Launch Center

Loading…

Prossimi Passaggi (prossime 24 ore)

TLE

AggiornatoSource: Space-Track

Epoca: Sep 13, 2026, 05:24 UTC

1 20894U 90081BE  26256.22529228  .00000975  00000-0  35633-3 0  9998
2 20894  98.5567 254.4272 0019485  46.9767  12.6690 14.35087746862990

Traccia CZ-4 DEB in tempo reale con AllMySat

Download on the App Store